RH
58 75 76 89 99 100 100 100 98 94 92 91 89 88 87 87 81 72 62 58 59 58 56 53 48 49 48 49 51 50 46 49 47 52 50 50 49 43 40 41 33 29 28 32 26
79 65 76 76 86 95 100 94 91 92 96 96 95 90 82 76 70 65 62 56 50 47 47 47 51 45 44 44 45 48 50 42 52 46 46 43 42 38 35 33 33 34 37 37 36
100 79 65 55 65 71 88 100 98 90 82 80 78 77 73 70 69 62 47 45 42 36 30 27 25 26 34 36 38 39 39 47 43 47 46 44 39 39 36 34 30 26 28 27 26
90 100 82 72 69 72 85 86 81 79 74 68 65 65 62 54 45 36 28 23 22 20 19 19 19 19 19 20 21 28 31 32 35 40 41 40 41 39 37 34 32 28 26 25 26
100 92 96 100 71 69 72 78 79 75 73 69 64 59 46 35 28 26 25 23 21 19 17 17 16 15 14 15 16 16 17 21 26 28 32 38 39 40 39 38 31 29 28 27 26
100 100 90 90 93 100 86 76 85 85 79 71 60 45 34 29 27 25 26 23 23 20 18 17 18 17 17 16 15 14 12 14 15 20 24 26 30 36 36 35 34 30 29 27 25
100 99 100 88 92 67 82 86 83 78 64 52 45 40 34 31 27 25 26 25 29 28 23 25 20 22 22 23 26 22 14 12 11 13 16 20 22 24 28 29 30 29 26 25 24
100 100 92 100 91 88 58 53 49 49 46 46 45 48 46 35 30 26 24 31 34 34 26 28 28 24 28 31 22 18 19 18 13 11 11 13 18 20 21 24 27 29 27 25 24
75 100 100 94 100 96 85 65 55 50 47 49 50 48 50 45 39 29 29 32 28 33 27 30 32 31 33 18 14 12 10 10 12 14 12 10 12 14 18 20 21 23 23 24 23
100 80 100 100 100 100 97 78 68 63 59 57 55 54 51 46 40 30 28 28 30 36 32 38 35 39 28 17 14 10 9 9 9 9 14 12 10 11 13 15 18 19 19 20 20
100 81 100 100 100 100 100 100 76 66 65 65 62 55 53 47 37 29 30 30 31 38 40 44 38 44 30 20 15 11 9 9 8 9 9 15 14 12 12 12 12 15 17 17 17
37 100 77 100 92 100 100 100 99 78 70 66 69 70 57 49 39 32 34 34 34 42 43 47 42 47 40 21 19 14 12 10 9 9 9 11 16 18 15 14 13 13 13 14 15
19 60 93 98 100 99 100 100 100 99 78 72 72 70 68 57 45 36 36 38 36 49 48 44 48 49 49 30 22 18 15 12 11 10 10 10 15 20 18 16 15 16 16 17 18
14 30 61 86 100 95 100 100 100 100 100 86 68 67 67 64 46 35 36 43 42 53 55 48 50 51 53 48 26 23 22 18 14 12 11 10 13 18 23 22 21 19 20 22 24
15 20 40 71 98 95 100 100 100 100 100 100 98 81 74 61 61 46 38 44 52 64 56 54 49 52 54 56 50 32 26 24 28 18 13 12 12 13 27 31 36 42 44 44 44
14 20 32 56 95 100 100 100 100 100 100 100 100 97 88 73 57 54 45 44 60 76 58 61 50 54 55 59 62 58 52 38 29 27 26 22 15 14 17 26 32 38 39 38 35
14 17 31 49 98 98 100 100 100 100 100 100 100 100 100 98 84 58 52 53 67 78 59 68 59 53 65 58 62 64 66 63 55 48 35 30 31 30 27 28 30 33 35 30 29
15 15 23 40 92 98 100 100 100 100 100 100 100 100 100 100 98 88 61 54 73 83 59 66 72 56 54 71 76 64 63 60 61 60 54 53 53 44 38 37 36 42 48 52 52
14 16 19 37 92 100 100 86 99 100 100 100 100 100 100 100 100 92 79 70 66 100 72 58 77 66 54 50 63 59 58 65 73 72 58 50 49 48 46 46 47 52 51 50 45
13 15 20 33 91 100 100 95 99 99 100 100 100 100 100 100 100 100 100 97 96 93 81 58 67 84 71 56 48 46 44 42 40 44 60 78 71 68 58 63 65 69 67 62 65
11 14 23 27 77 94 93 89 95 99 100 100 100 100 100 100 100 100 100 99 96 88 100 70 54 75 81 68 60 57 50 43 38 35 39 44 44 42 48 50 50 49 47 44 41
10 13 21 22 51 80 69 98 93 91 100 100 100 100 100 100 100 100 100 100 99 92 93 95 64 66 82 83 70 59 51 47 41 41 40 40 50 43 36 38 42 41 38 37 36
8 12 17 15 31 57 70 77 97 84 77 100 100 100 100 100 100 100 99 100 97 92 89 100 92 72 72 78 85 67 57 52 50 48 44 36 38 45 48 50 51 48 46 42 39
7 10 13 12 18 35 69 78 97 100 81 93 100 100 100 100 100 94 98 98 94 86 86 90 100 91 64 70 77 79 72 60 55 53 44 53 45 41 44 55 58 57 49 40 42
6 7 11 12 15 23 32 69 100 100 92 80 100 100 100 100 100 100 100 94 84 77 54 65 86 98 95 72 67 75 82 74 68 54 50 44 49 46 53 58 64 59 51 51 45
5 10 11 12 16 15 17 39 94 100 100 81 79 100 100 100 100 100 97 91 80 73 58 60 59 70 92 94 68 59 71 73 63 65 58 54 51 48 58 64 71 64 60 60 57
6 8 10 11 14 13 13 34 75 100 100 100 95 92 100 100 100 100 100 83 90 92 82 64 61 60 71 88 83 75 68 55 58 51 50 58 55 59 68 80 82 70 66 61 54
Wind_Speed
19 18 17 17 17 17 19 22 23 24 25 26 26 26 26 26 26 27 29 30 31 32 32 34 36 37 38 40 42 40 38 38 37 36 33 36 33 31 32 33 32 34 36 38 36
22 23 21 22 23 23 24 24 24 24 25 25 25 25 26 28 29 31 33 34 35 36 37 38 39 39 41 43 44 45 45 44 43 41 39 39 37 37 36 35 34 34 35 37 38
32 29 30 28 29 29 27 27 27 27 27 27 28 28 29 31 33 34 36 37 38 40 41 42 43 45 46 48 49 49 49 50 49 49 47 45 43 43 41 40 39 38 38 40 41
40 37 35 35 34 36 34 33 33 32 32 31 32 33 34 35 36 37 37 38 41 43 44 46 49 50 52 53 54 55 55 55 55 55 53 52 51 49 47 45 45 43 44 44 45
45 46 44 43 42 41 41 38 36 36 36 37 38 37 37 36 35 36 38 39 41 43 47 50 51 53 55 56 58 59 60 60 60 59 59 58 57 56 55 53 50 50 49 49 49
53 51 52 51 49 48 47 45 43 42 43 42 41 40 38 38 38 38 38 39 41 42 45 46 49 51 52 55 58 61 64 65 65 64 64 63 62 61 59 58 56 55 55 54 52
66 59 57 57 56 53 52 50 48 47 45 44 43 41 41 41 41 40 40 40 38 39 41 42 46 47 49 49 52 57 64 67 68 69 69 68 66 64 64 63 62 61 59 58 57
72 71 64 63 61 60 56 53 53 52 50 47 46 43 42 44 44 43 40 39 39 39 39 41 42 42 41 44 48 52 57 61 68 71 73 72 71 69 67 66 66 65 64 63 63
80 78 75 69 67 65 64 60 57 56 54 52 50 49 47 47 46 44 40 41 41 41 40 40 39 37 39 40 44 48 51 54 59 63 70 74 74 73 72 70 68 67 66 66 65
93 85 83 77 72 71 69 67 64 60 57 55 52 51 50 50 47 45 42 41 39 39 38 37 36 34 35 37 40 40 43 48 53 57 60 66 72 74 74 73 73 70 68 67 67
98 94 89 89 79 76 74 71 69 66 62 58 56 53 51 50 47 44 40 39 38 37 36 36 35 32 33 32 34 35 36 41 46 52 55 57 62 71 74 75 73 71 70 70 71
95 105 95 91 87 81 78 77 73 70 67 63 58 56 53 52 49 45 40 39 38 36 34 33 33 30 31 29 30 30 30 32 38 43 47 50 51 59 69 71 69 68 69 70 71
85 103 101 95 92 84 83 80 78 75 71 68 63 59 56 54 52 48 42 39 38 36 34 32 33 30 29 28 26 24 24 24 28 33 37 41 45 48 56 64 64 63 64 66 69
78 96 103 101 96 90 86 85 84 79 75 71 67 62 61 58 55 52 46 41 38 37 36 35 32 30 27 26 25 22 20 18 18 23 28 31 39 42 42 47 55 59 60 59 58
72 87 102 104 99 93 89 89 85 85 78 73 70 66 63 60 58 54 50 44 40 39 36 35 31 29 28 25 24 23 21 17 14 12 17 23 27 36 39 39 41 44 45 46 48
70 82 100 105 105 99 93 91 88 86 80 74 72 71 66 63 59 56 53 47 43 39 37 35 31 29 27 26 24 23 22 20 18 14 12 13 18 26 32 38 41 43 46 47 49
70 80 95 107 108 103 100 95 96 81 76 78 76 76 71 65 62 58 55 50 43 41 39 37 32 29 27 25 26 26 25 24 22 19 18 16 18 20 22 28 33 38 42 46 50
70 77 95 109 113 108 105 101 94 80 77 80 81 78 74 70 67 62 57 54 47 42 41 39 35 31 28 26 25 24 26 26 27 26 25 23 23 24 27 30 35 39 43 47 51
71 76 93 109 116 111 111 107 91 83 81 83 84 82 77 73 70 65 61 57 52 45 44 42 39 35 32 30 28 27 25 25 26 29 30 31 31 33 34 36 40 44 48 52 54
69 77 89 108 118 118 114 104 96 90 85 84 83 83 81 77 72 68 64 62 57 50 49 46 44 42 38 35 34 32 31 30 30 33 35 38 38 38 38 40 44 48 53 55 58
69 77 89 108 124 127 119 105 100 94 90 89 84 80 81 78 75 71 66 65 61 56 50 51 49 48 44 41 40 40 39 39 39 39 39 42 45 47 46 47 50 55 58 61 65
69 75 88 99 123 128 123 110 103 99 98 94 89 83 80 79 76 73 72 70 67 62 56 53 53 53 50 46 46 46 45 44 42 42 42 42 47 50 48 48 51 56 60 63 68
68 73 87 93 110 123 124 115 107 105 102 99 91 87 82 78 78 75 71 72 69 67 60 56 54 57 53 51 51 50 49 48 45 45 45 42 44 45 45 49 54 58 61 66 70
66 72 85 86 93 107 123 121 109 106 106 101 95 89 87 80 77 77 76 75 72 69 67 60 56 60 61 58 57 56 56 53 50 52 47 55 50 51 52 55 59 62 65 69 73
61 67 75 77 85 96 105 117 116 108 108 105 99 92 87 83 82 79 79 80 77 72 70 65 65 62 64 65 63 62 62 58 57 58 54 58 57 60 58 61 66 68 72 74 79
54 63 71 72 82 86 96 105 120 112 108 105 102 98 94 88 86 84 83 80 78 77 76 73 70 69 66 67 67 65 69 66 65 64 62 63 66 65 69 71 74 75 77 82 85
48 62 67 70 78 80 81 100 116 116 110 105 105 106 99 96 91 83 81 82 79 78 78 74 73 74 69 72 69 69 77 72 71 69 69 68 68 70 73 75 79 81 83 87 90
Wind_Direction
265 252 240 223 214 216 211 204 203 204 209 214 219 226 232 237 238 239 242 245 250 253 253 254 252 252 253 252 251 253 253 248 244 245 243 243 238 238 238 240 237 230 229 235 238
262 247 240 233 222 218 222 223 222 224 226 227 231 235 241 245 248 249 253 256 258 259 260 260 261 256 252 252 251 251 250 252 250 245 243 244 240 240 239 239 239 237 237 238 240
258 249 245 239 234 232 231 233 235 235 233 237 242 246 249 252 254 255 260 263 264 265 266 265 263 261 259 255 253 252 251 248 250 249 246 245 243 243 242 242 241 240 241 242 245
260 253 245 243 239 234 234 236 237 240 242 244 247 251 254 257 261 265 268 270 270 269 267 266 264 263 260 258 256 254 253 251 248 248 247 247 246 246 245 245 243 243 243 244 245
260 254 251 244 241 239 238 239 243 247 249 249 250 255 258 259 262 267 269 271 272 270 267 266 265 264 263 261 259 255 253 252 251 248 247 246 246 246 246 247 246 246 247 248 249
253 254 249 249 247 244 242 242 244 247 250 251 253 255 257 260 262 264 267 272 273 272 270 268 268 267 266 264 261 259 256 250 248 248 247 246 245 246 246 247 248 248 251 253 253
254 249 248 246 247 244 245 242 243 244 245 250 253 255 256 260 263 265 269 274 273 275 274 275 275 274 273 267 264 261 256 252 248 246 244 245 247 246 246 247 247 248 251 253 255
253 247 245 245 243 244 241 241 242 244 245 248 252 254 257 259 263 266 269 276 275 278 279 282 281 279 272 271 268 265 261 256 251 247 244 243 244 245 246 247 248 251 252 253 256
248 246 242 241 242 242 242 240 241 244 246 248 252 254 256 259 263 267 269 274 282 282 280 287 287 280 282 277 274 271 264 258 252 248 245 243 242 244 246 247 248 250 252 255 258
242 243 240 239 237 239 241 242 241 242 244 247 248 251 254 258 262 266 269 275 280 285 288 290 289 285 288 286 286 279 267 257 252 248 245 243 241 242 245 247 249 251 253 256 258
233 238 238 235 235 236 237 240 242 241 242 244 247 249 252 256 259 262 269 275 278 286 292 293 291 290 294 296 296 288 273 257 251 248 245 243 242 240 242 245 248 251 253 257 259
231 231 231 232 231 235 234 236 239 242 242 244 246 249 250 254 256 260 266 273 277 284 289 295 293 290 303 301 305 297 284 264 252 247 246 243 242 242 241 244 247 250 254 256 258
232 226 227 226 228 230 234 233 234 238 242 243 245 247 249 252 254 256 260 269 275 278 279 293 297 288 300 306 309 307 296 276 262 252 247 243 241 243 244 245 247 251 254 257 260
233 225 221 223 223 227 232 233 234 233 237 242 244 247 250 250 253 255 258 264 271 276 275 285 293 287 292 306 308 312 308 301 279 261 252 247 242 241 245 246 248 252 256 259 260
231 224 221 221 220 223 228 231 232 233 231 237 242 244 248 251 251 253 257 262 267 272 271 277 286 291 283 294 308 310 313 308 307 293 264 251 245 242 243 246 246 250 254 261 265
230 223 219 218 218 221 224 227 230 231 231 233 239 243 246 249 251 252 253 257 265 268 267 269 278 286 283 279 289 300 310 311 310 303 289 271 255 248 244 248 251 256 262 266 267
229 223 217 216 216 219 222 223 227 228 231 232 235 239 242 245 250 251 251 254 260 264 263 262 269 279 281 279 277 283 289 296 300 301 294 285 273 267 258 257 259 261 263 266 268
228 225 219 216 215 216 221 222 222 224 230 231 234 237 240 244 247 250 251 253 256 259 261 258 261 268 275 276 280 280 283 285 285 284 283 280 274 266 265 264 265 266 267 268 269
228 224 219 214 214 218 220 220 220 221 225 231 232 235 237 241 243 247 250 254 254 254 258 255 257 259 265 270 271 275 280 284 287 288 285 277 272 271 269 269 269 271 271 272 275
226 222 219 213 213 217 220 219 218 219 221 227 231 234 236 239 242 245 248 251 254 254 255 254 254 255 259 262 266 271 274 278 281 283 282 281 280 275 275 274 275 275 275 278 280
226 221 217 214 214 217 220 217 218 218 220 224 228 232 235 236 238 242 245 249 252 254 252 254 253 255 255 258 263 269 274 276 283 283 280 280 281 279 278 278 280 281 281 282 282
228 220 219 218 216 217 219 217 218 218 221 223 226 228 231 235 237 240 243 247 250 251 251 252 254 254 255 257 261 266 271 275 280 284 285 284 286 284 285 286 285 283 284 284 284
230 221 219 219 217 218 220 219 219 219 220 223 223 227 229 232 235 237 240 244 246 249 251 248 252 254 254 256 259 265 270 273 276 278 281 285 281 287 289 291 287 286 285 286 288
231 225 222 221 219 219 220 219 219 221 222 221 223 225 227 230 232 235 237 241 244 245 247 248 251 255 255 256 259 262 268 272 274 276 281 281 288 285 294 293 291 290 293 294 295
231 227 225 221 219 221 222 220 219 221 224 223 224 224 226 229 232 233 237 240 242 243 247 248 251 254 257 257 259 263 267 270 273 277 282 283 286 290 292 293 294 296 298 299 301
234 226 228 222 219 220 221 218 219 222 223 225 224 225 226 229 231 232 234 238 241 245 248 251 252 255 253 259 261 262 266 270 272 276 280 284 285 291 292 295 296 298 300 302 304
232 225 224 221 219 219 219 218 218 220 222 225 224 226 227 230 232 233 237 238 240 243 246 249 252 255 254 257 261 265 266 267 270 275 280 281 286 290 292 293 295 297 300 302 303